Vertical_Velocity
-2 -1 -4 -4 -1 1 9 3 5 5 2 9 30 7 -2 -6 -3 -7 -4 -4 -6 -3 1 -3 -1 1 1 2 1 -1 -2 2 -10 6 -5 -1 -2 -3 -0 1 2 -1 -1
-5 -4 -2 -1 -2 -1 -1 2 1 3 5 7 -1 -4 -2 -0 -1 -3 -2 -2 -4 -3 1 -3 -1 1 0 1 1 -3 -2 1 -3 3 0 1 -3 -3 -2 -4 1 2 -3
-2 -0 -0 2 1 1 2 2 4 3 0 -6 -1 -0 -2 -1 -2 -2 -2 -1 -3 -1 2 0 1 -1 -2 0 1 -1 -1 -5 0 -2 1 -0 -5 -2 -3 -2 -2 -3 -2
-6 -5 -2 -1 -1 -0 1 -2 -0 -0 1 1 1 -2 -4 -4 -2 -2 -3 -2 -2 -2 -2 -1 -1 -1 -3 0 1 1 2 -6 -3 -3 -3 3 1 1 -5 -7 -5 -3 -6
-6 -3 -3 -2 0 4 1 1 0 4 3 -0 -4 -2 0 -1 -2 -2 -2 -4 -4 -3 0 -1 -0 1 -0 -1 -6 4 -3 -6 -6 -3 -3 0 -0 6 -6 -2 -9 -3 2
-1 -0 -1 8 -3 11 10 9 14 5 -3 -6 -1 -4 -3 -1 -2 -0 -3 -5 -1 -2 -3 2 -1 -0 1 0 1 0 -2 -6 -3 -4 7 -7 6 -0 0 0 -9 -3 -19
-2 1 1 6 12 10 5 2 -2 -4 -1 1 0 -1 -2 -1 0 -1 -0 -5 -4 -3 -2 -3 -1 0 -0 -1 2 0 -1 -1 -2 1 0 -1 -4 5 1 4 -1 -6 -9
0 2 1 0 -0 1 -3 -6 -3 -2 -2 -2 -0 -3 -2 0 -2 -3 -3 -3 -3 0 1 -1 -3 -2 0 -1 -2 -2 -2 0 4 2 -2 1 -1 2 -2 -1 -0 -3 -7
-3 -4 -2 -2 -3 -0 0 -1 -1 -2 -1 -1 -2 -1 -2 -0 -2 -1 -3 -4 -2 0 1 1 -3 -3 0 0 -3 -2 -4 -1 1 1 2 4 1 0 1 -2 -0 -4 -1
-3 1 2 2 -0 -3 -2 -2 -2 -3 -3 -2 -1 -1 -1 -5 0 -2 -4 -4 -2 -4 3 1 4 2 1 2 0 -0 -5 -1 1 6 2 2 -1 -2 -1 -2 1 -2 0
-3 0 0 -2 -2 0 -0 -2 -2 -2 -0 -2 -1 1 -1 -3 -1 -3 -1 -3 -4 -2 -2 -1 2 1 -0 -0 0 -1 0 0 -0 -2 1 2 3 -1 -2 0 1 1 -2
-5 -3 -1 -0 -0 1 -0 0 -1 -1 -2 -3 -0 2 2 2 -3 -2 0 -0 1 -3 -1 2 -0 -0 1 1 1 1 -2 -2 -1 -0 1 3 3 4 2 1 3 2 0
-4 0 1 -0 0 -1 -1 1 -2 -3 -3 -3 -1 -3 2 2 -0 0 -0 -0 2 3 1 -0 -0 0 0 1 0 1 2 2 0 -2 -1 0 3 5 2 0 2 3 2
-1 0 -0 1 0 -2 -2 -3 -3 -2 -2 -4 -1 -2 1 0 -1 0 1 1 3 1 -1 2 -2 -3 -1 1 2 1 -0 -1 -1 -0 0 1 -3 -1 1 1 0 1 -2
-1 -4 -2 -2 -2 -1 -1 -2 -0 1 -6 -6 -2 -4 -4 1 2 0 -2 0 0 -2 -2 2 1 1 0 1 1 0 -0 0 1 1 -0 0 -1 -2 1 -0 1 1 -2
1 -0 1 1 -1 -1 -1 4 1 0 -3 1 -3 -2 2 -4 0 1 -0 1 1 -2 4 1 -0 -1 -1 -1 -0 -1 0 2 0 -1 2 1 1 1 2 0 -1 1 -4
-1 2 1 -1 -2 -1 1 -1 -0 9 -4 -2 -2 -1 -2 -1 2 2 1 2 -0 1 4 -2 -2 -0 1 -1 -1 -1 -1 -0 -0 2 -0 -2 -3 -5 -5 -2 3 2 2
1 0 -1 -1 0 0 1 1 -1 -4 -1 3 1 0 0 -0 1 1 1 2 0 3 2 -2 -2 0 0 0 0 0 -1 -1 0 1 3 3 2 -1 0 0 -2 -1 -1
-1 -2 -1 0 1 -1 -2 1 0 -1 -3 -0 1 -0 1 0 1 1 1 3 3 0 1 0 -1 1 0 -2 -0 0 -0 -1 -2 -3 -1 -0 -2 -0 -0 -1 -1 -1 -1
-1 -2 -2 -1 -0 1 0 0 0 0 -1 -0 1 1 2 1 2 2 2 2 2 0 -1 -0 0 -2 0 1 -1 -0 0 -1 -1 -0 -1 -2 -2 -1 -1 -2 -2 -1 1
-1 -1 -1 0 -0 -0 1 -0 -1 0 -1 0 0 -0 0 1 2 1 2 2 2 1 1 1 0 1 -1 1 0 -1 -1 -0 -0 -1 -1 -0 -1 -1 -2 -2 -2 -2 -0
-1 -1 -1 0 0 -1 0 -0 -0 -0 -1 1 -0 -0 1 1 1 1 1 2 2 2 1 1 0 2 1 0 -0 0 -1 0 0 -1 -1 -1 -0 -1 -0 -0 -0 -1 -2
-1 -0 -1 -0 -0 -0 0 -1 1 0 -0 1 -1 -1 0 0 1 1 1 1 2 1 1 0 1 1 0 -0 -1 -0 1 2 -1 -1 -1 -1 -1 -1 -1 0 1 1 -0
-1 -1 0 -1 -1 -1 -0 -1 1 -0 -1 -0 -0 -0 0 -0 1 1 1 1 1 1 1 1 1 1 1 0 -0 -1 -1 -1 -1 -0 -0 0 0 -0 -1 -0 0 -0 -0
-0 -1 -1 -0 -0 -1 -0 -2 -1 -0 0 -1 -1 -1 1 0 1 1 1 1 1 1 1 1 1 1 1 0 -0 1 -0 -1 -1 -0 -0 -1 -0 -1 -0 -1 -0 -1 -1
-1 -1 -0 -1 -1 -1 -0 -0 -1 -1 -0 -1 -1 -1 0 0 1 1 1 1 1 1 1 1 1 1 0 -1 -1 -1 -1 -0 -0 -1 -1 -1 -0 1 -1 -1 -2 -2 -0
Height
3043 3037 3029 3022 3015 3009 3004 2999 2996 2991 2988 2987 2984 2980 2977 2973 2970 2967 2965 2963 2960 2957 2954 2950 2947 2945 2942 2940 2939 2937 2935 2933 2925 2925 2928 2931 2933 2934 2938 2942 2946 2948 2952
3033 3025 3017 3008 3001 2996 2992 2989 2986 2983 2980 2977 2972 2970 2968 2965 2961 2957 2953 2950 2946 2942 2939 2936 2934 2932 2929 2928 2926 2924 2921 2920 2917 2911 2914 2916 2918 2920 2922 2925 2929 2933 2937
3020 3011 3003 2996 2990 2986 2984 2981 2977 2975 2971 2968 2965 2962 2959 2955 2950 2946 2942 2937 2933 2930 2927 2924 2922 2919 2917 2915 2912 2909 2908 2906 2904 2899 2897 2900 2902 2906 2907 2908 2912 2915 2921
3009 3001 2994 2986 2981 2978 2974 2971 2968 2965 2962 2959 2956 2953 2949 2944 2939 2934 2929 2925 2921 2918 2915 2912 2909 2905 2902 2900 2897 2896 2894 2891 2891 2888 2886 2886 2887 2890 2892 2894 2898 2902 2905
2998 2989 2983 2977 2973 2969 2964 2961 2958 2955 2953 2950 2947 2942 2937 2932 2927 2922 2917 2913 2908 2905 2902 2899 2895 2892 2889 2885 2882 2881 2879 2877 2876 2875 2874 2873 2874 2875 2877 2881 2882 2887 2892
2985 2978 2973 2970 2965 2961 2958 2955 2952 2948 2944 2940 2936 2931 2927 2922 2917 2911 2905 2900 2896 2892 2888 2885 2881 2877 2874 2871 2868 2865 2864 2861 2859 2859 2859 2860 2862 2863 2864 2866 2871 2873 2877
2974 2969 2965 2963 2959 2956 2951 2947 2942 2938 2936 2932 2927 2922 2917 2912 2907 2901 2896 2890 2885 2881 2876 2870 2866 2863 2859 2856 2854 2852 2850 2849 2847 2846 2845 2848 2850 2852 2855 2855 2857 2860 2865
2967 2963 2959 2956 2953 2949 2945 2941 2937 2933 2929 2924 2919 2913 2908 2903 2897 2891 2885 2880 2874 2870 2863 2858 2853 2850 2848 2844 2841 2838 2837 2837 2837 2836 2834 2835 2837 2840 2842 2845 2846 2848 2852
2961 2958 2954 2951 2946 2942 2939 2936 2931 2926 2920 2915 2910 2904 2898 2893 2887 2881 2875 2869 2863 2858 2854 2849 2845 2840 2837 2834 2827 2824 2823 2824 2826 2825 2824 2824 2825 2828 2832 2834 2835 2838 2840
2956 2953 2949 2946 2942 2937 2933 2928 2922 2917 2912 2906 2901 2895 2889 2883 2878 2872 2865 2858 2853 2849 2846 2842 2837 2830 2824 2821 2816 2813 2811 2814 2813 2813 2812 2813 2816 2818 2820 2822 2825 2827 2830
2950 2947 2944 2940 2936 2931 2925 2920 2915 2910 2904 2898 2893 2887 2881 2874 2868 2862 2856 2851 2846 2842 2838 2834 2828 2822 2816 2812 2809 2806 2804 2804 2803 2802 2803 2803 2805 2808 2811 2812 2814 2817 2821
2945 2942 2938 2933 2928 2923 2918 2913 2908 2902 2896 2890 2885 2880 2874 2867 2861 2855 2851 2846 2841 2836 2831 2825 2818 2813 2808 2804 2801 2799 2798 2797 2796 2795 2794 2795 2797 2800 2804 2806 2806 2808 2811
2940 2936 2932 2927 2922 2917 2911 2906 2901 2894 2888 2883 2877 2872 2866 2861 2855 2850 2846 2842 2838 2833 2826 2819 2812 2806 2801 2797 2794 2794 2793 2791 2789 2788 2788 2789 2790 2793 2794 2797 2799 2800 2802
2935 2931 2926 2921 2916 2910 2904 2898 2893 2887 2881 2875 2870 2864 2859 2855 2849 2846 2842 2839 2835 2830 2823 2816 2807 2800 2795 2792 2791 2790 2789 2787 2784 2782 2781 2782 2783 2784 2785 2788 2792 2795 2796
2929 2924 2920 2914 2908 2903 2898 2892 2887 2881 2875 2868 2863 2857 2852 2849 2845 2841 2839 2835 2831 2827 2820 2814 2807 2798 2794 2792 2791 2789 2788 2786 2783 2781 2779 2778 2778 2779 2780 2781 2786 2790 2792
2923 2918 2913 2908 2902 2896 2891 2887 2881 2876 2870 2863 2857 2851 2848 2843 2840 2838 2836 2833 2830 2825 2819 2814 2806 2799 2795 2793 2792 2790 2787 2785 2783 2781 2779 2778 2778 2778 2779 2781 2784 2787 2789
2918 2913 2907 2902 2896 2891 2885 2880 2876 2871 2865 2858 2852 2847 2843 2840 2837 2835 2833 2831 2828 2824 2820 2815 2808 2801 2796 2794 2792 2790 2788 2786 2784 2782 2781 2782 2782 2782 2782 2783 2785 2787 2788
2913 2907 2901 2895 2890 2885 2880 2875 2870 2864 2859 2854 2848 2843 2840 2837 2834 2833 2831 2829 2827 2825 2821 2816 2810 2803 2799 2796 2794 2791 2789 2787 2786 2784 2784 2784 2784 2784 2785 2785 2786 2786 2787
2906 2901 2895 2890 2885 2880 2875 2870 2865 2860 2854 2849 2844 2841 2837 2834 2832 2830 2829 2828 2827 2824 2821 2816 2812 2807 2803 2799 2796 2793 2789 2787 2785 2784 2784 2783 2784 2784 2784 2784 2785 2785 2786
2901 2896 2891 2886 2881 2876 2871 2866 2861 2855 2850 2846 2841 2838 2835 2832 2830 2829 2828 2827 2825 2824 2821 2817 2814 2811 2807 2803 2800 2796 2793 2789 2786 2784 2783 2782 2782 2782 2782 2782 2783 2783 2783
2896 2891 2887 2883 2878 2873 2868 2863 2858 2852 2847 2843 2839 2835 2832 2830 2829 2827 2826 2825 2824 2823 2821 2818 2815 2812 2810 2806 2803 2800 2797 2794 2790 2786 2783 2780 2779 2779 2780 2781 2781 2781 2782
2892 2888 2884 2880 2875 2871 2866 2861 2855 2850 2846 2841 2837 2833 2830 2829 2827 2826 2825 2824 2823 2821 2820 2818 2816 2814 2811 2809 2806 2803 2801 2797 2793 2790 2786 2783 2780 2779 2779 2780 2781 2781 2783
2889 2886 2882 2877 2873 2869 2864 2859 2854 2849 2845 2840 2836 2832 2829 2827 2826 2825 2824 2823 2822 2820 2819 2818 2816 2814 2812 2811 2809 2806 2803 2801 2797 2794 2790 2787 2785 2782 2780 2780 2781 2782 2783
2888 2884 2880 2876 2872 2867 2862 2857 2853 2848 2844 2839 2835 2831 2828 2826 2825 2824 2823 2822 2821 2820 2819 2817 2816 2815 2813 2811 2810 2808 2805 2803 2800 2797 2794 2792 2790 2788 2786 2784 2783 2783 2783
2885 2881 2878 2874 2870 2866 2861 2856 2852 2848 2843 2839 2835 2831 2828 2825 2823 2823 2822 2821 2820 2819 2818 2817 2816 2815 2814 2812 2811 2809 2807 2805 2802 2800 2798 2796 2794 2792 2790 2789 2787 2786 2786
2883 2880 2876 2872 2868 2864 2860 2855 2851 2847 2843 2839 2835 2832 2829 2825 2823 2822 2821 2820 2820 2819 2818 2817 2817 2816 2815 2813 2812 2810 2808 2806 2804 2802 2800 2798 2796 2795 2794 2792 2791 2789 2789